Weather in Bogatoe

Russia / Samara Oblast     53°03′35″N   51°20′23″E
temp.,
°C
wind,
m/s
gust,
m/s
humid.,
%
clouds,
%
prec.,
mm/h
press.,
hPa
HPBL,
m
25 february, thu
thu2501:00−28nw33930 0.0 103519
04:00−29nw33934 0.0 103620
07:00−30wnw229516 0.0 103619
10:00−25sw129124 0.0 103587
13:00−21ssw3588100 0.0 1034255
16:00−19s5885100 0.0 1031344
19:00−19s61096100 0.1 1028412
22:00−18s61296100 0.9 1026535
26 february, fri
fri2601:00−16s71295100 1.0 1023597
04:00−14s61294100 1.8 1022618
07:00−13sse61194100 0.6 1019530
10:00−11s61093100 1.1 1019558
13:00−9s6991100 0.3 1017607
16:00−9sse61092100 0.6 1016555
19:00−9sse61193100 0.3 1013420
22:00−7s71295100 1.3 1010410
27 february, sat
sat2701:00−4s91695100 2.6 1003497
04:00+1sw713100100 7.3 1000418
07:00+1w61398100 0.4 999531
10:00+1wsw6139396 0.5 999615
13:00+1wsw61210095 0.2 1000624
16:00+1wsw5119996 0.3 1000546
19:000sw51098100 0.1 999414
22:000sw51096100 0.3 1000424
28 february, sun
sun2801:000sw61196100 0.6 998495
04:00−1wsw51098100 1.6 999462
07:00−8nw4895100 1.0 1001274
10:00−9nw5793100 1.6 1003419
13:00−10nw5890100 0.2 1005504
16:00−11nw5890100 0.3 1007541
19:00−14nw499395 0.1 1010337
22:00−17nw369681 0.1 1013118
1 march, mon
mon101:00−17nw379675 0.0 1014211
04:00−17wnw369676 0.1 1016140
07:00−17nw379687 0.1 1017247
10:00−16nnw479484 0.1 1019312
13:00−14nnw469198 0.0 1020415
16:00−14nnw479199 0.1 1021425
19:00−17nw369587 0.0 102292
22:00−19nw339654 0.0 102331